Regional Weather Roundup
Issued by NWS

Home | Current Version | Previous Version | Graphics & Text | Print | Product List | Glossary On
Versions: 1 2 3 4 5 6 7 8 9 10 11 12 13 14 15 16 17 18 19 20 21 22 23 24 25 26 27 28 29 30 31 32 33 34 35 36 37 38 39 40 41 42 43 44 45 46 47 48
000
ASUS43 KDMX 050807
RWRIA

WEATHER ROUNDUP FOR IOWA
NATIONAL WEATHER SERVICE DES MOINES IA
300 AM CDT SUN JUL 05 2015

NOTE: "FAIR" INDICATES FEW OR NO CLOUDS BELOW 12,000 FEET WITH NO
SIGNIFICANT WEATHER AND/OR OBSTRUCTIONS TO VISIBILITY.

* - THESE STATIONS ARE NOT NWS STATIONS...THUS NOT UNDER NWS
QUALITY CONTROL.  THEY ALSO DO NOT REPORT WEATHER SUCH
AS PRECIPITATION OR FOG.

IAZ001>003-012>014-020>022-031>034-043>046-050900-
   NORTHWEST IOWA

CITY           SKY/WX    TMP DP  RH WIND       PRES   REMARKS
CARROLL *      CLOUDY    61  61 100 S6        29.96S
CHEROKEE *     PTCLDY    64  61  88 S5        29.94R
DENISON *      MOCLDY    66  61  82 S10       29.93F
LE MARS *      CLEAR     68  63  83 S9        29.91F
ORANGE CITY *  CLEAR     66  61  82 S9        29.92S
SHELDON *      CLEAR     66  66 100 S10       29.91S
SIOUX CITY     MOCLDY    68  61  78 SE8       29.90F
SPENCER        PTCLDY    64  59  83 S8        29.94S
STORM LAKE *   CLEAR     63  59  88 S10G22    29.95F
$$

IAZ055>058-069>071-079>083-090>094-050900-
   SOUTHWEST IOWA

CITY           SKY/WX    TMP DP  RH WIND       PRES   REMARKS
ATLANTIC *     CLOUDY    66  61  82 S8        29.97S
AUDUBON *      CLEAR     61  57  88 CALM      29.98S
CLARINDA *     CLEAR     63  63 100 S3        29.99F
COUNCIL BLFS * CLEAR     66  63  88 S9        29.95F
CRESTON *      CLEAR     64  61  88 S8        30.00F
HARLAN  *      CLEAR     63  63 100 S5        29.99S
LAMONI         CLEAR     67  62  84 S7        30.00F
RED OAK *      CLEAR     66  63  88 S6        29.97F
SHENANDOAH *   CLEAR     68  64  88 CALM      29.97S
$$

IAZ047>049-059>061-072>074-084-050900-
   CENTRAL IOWA

CITY           SKY/WX    TMP DP  RH WIND       PRES   REMARKS
AMES           CLEAR     60  58  92 SE6       29.98F
ANKENY *       CLEAR     59  59 100 CALM      29.99F FOG
CHARITON *     CLOUDY    63  61  94 S6        30.01S
DES MOINES     PTCLDY    66  59  78 S6        29.99S
GRINNELL*      CLEAR     63  61  94 SE7       30.02F
KNOXVILLE *    CLEAR     63  59  88 SE5       30.00S
MARSHALLTOWN   CLEAR     63  60  90 SE7       30.00F
PELLA *        CLEAR     64  64 100 SE5       30.02S
PERRY *          N/A     59  59 100 SE5       29.98F
$$

IAZ004>006-015-016-023>025-035-036-050900-
   NORTH CENTRAL IOWA

CITY           SKY/WX    TMP DP  RH WIND       PRES   REMARKS
ALGONA *       CLEAR     64  61  88 S9        29.97R
CLARION *      CLEAR     63  59  88 S9        29.98S
ESTHERVILLE    PTCLDY    61  59  93 S9        29.94F
FORT DODGE *   CLEAR     66  57  72 S7        29.98S
MASON CITY     CLEAR     60  57  89 S7        30.00F
FOREST CITY *  CLEAR     61  59  94 S9        29.98S
IOWA FALLS *     N/A     61  59  94 SE6       30.01F
$$

IAZ007>011-017>019-026>030-037>042-050>054-066-050900-
   NORTHEAST IOWA

CITY           SKY/WX    TMP DP  RH WIND       PRES   REMARKS
CEDAR RAPIDS   CLEAR     62  61  96 SE6       30.02S
CHARLES CITY * CLEAR     61  61 100 S7        30.00F
CLINTON *      CLEAR     63  57  82 CALM      30.07S
DECORAH *        N/A    N/A N/A N/A MISG        N/A
DUBUQUE        CLEAR     60  57  89 S3        30.05S
MONTICELLO *   CLEAR     59  59 100 E3        30.03F
OELWEIN *      CLEAR     61  59  94 SE7       30.02F
WATERLOO       CLEAR     64  59  83 S7        29.99F
$$

IAZ064-065-067-068-078-050900-
   EAST CENTRAL IOWA

CITY           SKY/WX    TMP DP  RH WIND       PRES   REMARKS
DAVENPORT      CLEAR     62  59  90 S3        30.05R FOG
IOWA CITY      CLEAR     62  59  90 CALM      30.04S
MT. PLEASANT * CLEAR     64  61  88 S3        30.04S FOG
MUSCATINE *    FOG       61  61 100 CALM      30.04S VSB 1
QUAD CITIES    CLEAR     64  59  83 CALM      30.04R
$$

IAZ062-063-075>077-085>089-095>099-050900-
   SOUTHEAST IOWA

CITY           SKY/WX    TMP DP  RH WIND       PRES   REMARKS
BURLINGTON     CLEAR     65  63  93 S3        30.04R
FAIRFIELD *    CLEAR     64  61  88 SE6       30.03S
FORT MADISON * CLEAR     64  63  94 S3        30.05S
KEOKUK *       CLEAR     68  64  88 S3        30.03S
OSKALOOSA *      N/A     61  59  94 CALM      30.03S
CENTERVILLE *  CLEAR     63  61  94 SE7       30.03F
OTTUMWA        CLEAR     64  62  93 S6        30.01S
WASHINGTON *   CLEAR     61  61 100 S7        30.04F
$$

ABBREVIATIONS USED IN REMARKS
   TC - TEMPERATURES IN CELSIUS
  WCI - WIND CHILL INDEX
   HX - HEAT INDEX
  VSB - VISIBILITY
$$




USA.gov is the U.S. government's official web portal to all federal, state and local government web resources and services.